Flag for Germany Weather past 2 weeks in Minden, North Rhine-Westphalia, Germany

Now
64 °F

Mild.


Feels Like: 64 °F
Forecast: 61 / 78 °F
Wind: 2 mph from Northeast

Location: Bueckeburg

Current Time: Jul 23, 2014 at 4:49:20 AM

Latest Report: Jul 23, 2014 at 4:20 AM


Visibility: N/A

Pressure: 30.12 "Hg

Humidity: 68%

Dew point: 54 °F

Location of MindenLocation

Historic Weather in Minden — Graph

°F

Minden temperature yesterday

Maximum temperature yesterday: 82 °F (at 4:54 PM)
Minimum temperature yesterday: 59 °F (at 5:20 AM)
Average temperature yesterday: 69 °F

Past Weeks' High & Low Weather Summary

 TemperatureHumidityPressure
High91 °F (Jul 19, 4:20 PM)100% (Jul 8, 10:20 PM)30.18 "Hg (Jul 8, 10:20 PM)
Low52 °F (Jul 12, 6:20 AM)28% (Jul 19, 4:20 PM)29.62 "Hg (Jul 9, 9:51 AM)
Average69 °F73%29.92 "Hg
* Reported Jul 8 3:20 AM — Jul 23 3:20 AM, Minden, Weather by CustomWeather, © 2014

Note: Actual official high and low records may vary slightly from our data, if they occured in-between our weather recording intervals... More about our weather records

Advertising

Minden weather history for previous 24 hours

 ConditionsComfort  
Time TempWeatherWind HumidityBarometerVisibility
3:20 AM
Jul 23
66 °FMild.2 mph68%30.12 "HgN/A
2:20 AM68 °FMild.1 mph64%30.12 "HgN/A
1:20 AM68 °FMild.3 mph69%30.12 "HgN/A
6:20 PM
Jul 22
82 °FWarm.9 mph45%30.04 "HgN/A
5:20 PM81 °FWarm.8 mph51%30.04 "HgN/A
4:54 PM82 °FScattered clouds.8 mph51%30.04 "HgN/A
4:20 PM81 °FScattered clouds.8 mph54%30.07 "HgN/A
3:20 PM79 °FScattered clouds.9 mph58%30.07 "HgN/A
2:20 PM77 °FScattered clouds.9 mph61%30.07 "HgN/A
1:20 PM73 °FScattered clouds.9 mph69%30.07 "HgN/A
12:20 PM70 °FPartly sunny.8 mph73%30.07 "HgN/A
12:00 PM68 °FPartly sunny.8 mph78%30.07 "HgN/A
11:20 AM66 °FOvercast.8 mph83%30.07 "HgN/A
10:20 AM64 °FOvercast.7 mph88%30.07 "HgN/A
9:20 AM64 °FLow clouds.9 mph88%30.04 "HgN/A
8:50 AM63 °FLow clouds.8 mph94%30.04 "Hg6 mi
8:20 AM63 °FLow clouds.8 mph88%30.04 "HgN/A
7:20 AM63 °FPartly sunny.2 mph88%30.01 "HgN/A
6:20 AM61 °FPassing clouds.2 mph88%30.01 "HgN/A
5:20 AM59 °FPassing clouds.1 mph88%30.01 "HgN/A
4:20 AM61 °FPassing clouds.No wind83%29.98 "HgN/A
Weather by CustomWeather, © 2014

See weather overviewHow to use our weather pages